Location: Camp Creek
(33.9000°N, 111.8167°W)
Time: 07:18:25
(UTC-07:00)

Cosmos 1656 - Visible Passes

Search period start: 29 January 2015 00:00
Search period end: 08 February 2015 00:00
Orbit: 797 x 851 km, 71.1° (Epoch: 27 January)

Date Brightness Start Highest point End Pass type
(mag) Time Alt. Az. Time Alt. Az. Time Alt. Az.
29 Jan 5.4 04:22:52 27° ENE 04:22:52 27° ENE 04:27:39 10° ESE visible
29 Jan 4.3 06:04:23 27° WNW 06:06:32 35° WSW 06:11:36 10° SSW visible
29 Jan 3.7 19:01:11 10° SSW 19:06:39 81° WNW 19:12:16 10° NNE visible
30 Jan 5.9 04:04:13 20° E 04:04:13 20° E 04:06:56 10° ESE visible
30 Jan 4.0 05:45:44 41° W 05:46:14 42° WSW 05:51:30 10° S visible
30 Jan 3.6 18:40:50 10° SSW 18:46:18 86° ESE 18:51:55 10° NNE visible
30 Jan 6.4 20:28:48 10° WNW 20:30:51 12° NW 20:32:35 10° NNW visible
31 Jan 6.5 03:45:37 12° E 03:45:37 12° E 03:46:07 10° ESE visible
31 Jan 4.2 05:27:09 42° SW 05:27:09 42° SW 05:31:21 10° S visible
31 Jan 3.6 18:20:32 10° SSW 18:25:58 72° ESE 18:31:33 10° NNE visible
31 Jan 6.3 20:07:25 10° W 20:10:20 14° NW 20:13:00 10° NNW visible
01 Feb 5.0 05:08:35 27° S 05:08:35 27° S 05:11:09 10° S visible
01 Feb 6.2 19:46:20 10° W 19:49:51 16° NW 19:53:09 10° NNW visible
02 Feb 5.8 04:50:01 15° S 04:50:01 15° S 04:50:54 10° S visible
02 Feb 6.1 19:25:24 10° WSW 19:29:22 19° WNW 19:33:11 10° NNW visible
03 Feb 5.9 19:04:34 10° WSW 19:08:53 22° WNW 19:13:08 10° N visible
04 Feb 5.7 18:43:48 10° WSW 18:48:26 26° WNW 18:53:01 10° N visible
05 Feb 5.5 18:23:08 10° WSW 18:28:00 30° WNW 18:32:52 10° N visible
